QPF
0.02 0.03 0.02 0.03 0.03 0.01 0.01 0.01 0.01 0.02 0.03 0.05 0.06 0.05 0.06 0.05 0.03 0.04 0.04 0.05 0.06 0.08 0.10 0.09 0.07 0.07 0.10 0.14 0.15 0.17 0.15 0.13 0.09 0.08 0.09 0.10 0.11 0.10 0.07 0.08 0.10 0.14 0.16 0.17
0.02 0.02 0.02 0.01 0.01 0.01 0.01 0.01 0.01 0.02 0.04 0.04 0.05 0.05 0.05 0.06 0.04 0.02 0.02 0.04 0.05 0.06 0.10 0.08 0.06 0.07 0.09 0.14 0.15 0.16 0.14 0.11 0.09 0.07 0.07 0.09 0.10 0.09 0.07 0.06 0.09 0.12 0.15 0.14
0.02 0.02 0.02 0.02 0.02 0.01 0.01 0.01 0.01 0.03 0.04 0.04 0.05 0.06 0.05 0.07 0.06 0.03 0.03 0.03 0.05 0.07 0.09 0.10 0.08 0.08 0.10 0.14 0.17 0.13 0.11 0.12 0.10 0.07 0.07 0.08 0.10 0.10 0.08 0.07 0.07 0.10 0.14 0.15
0.02 0.03 0.03 0.02 0.01 0.01 0.01 0.01 0.02 0.02 0.03 0.04 0.04 0.07 0.05 0.06 0.06 0.04 0.03 0.03 0.05 0.07 0.08 0.09 0.09 0.10 0.10 0.15 0.21 0.16 0.10 0.12 0.11 0.09 0.08 0.07 0.08 0.10 0.07 0.07 0.07 0.09 0.13 0.14
0.02 0.03 0.03 0.02 0.01 0.01 0.01 0.01 0.01 0.03 0.04 0.03 0.03 0.05 0.05 0.05 0.07 0.05 0.03 0.03 0.04 0.06 0.06 0.07 0.07 0.08 0.09 0.12 0.18 0.20 0.17 0.12 0.12 0.11 0.08 0.07 0.07 0.09 0.09 0.06 0.08 0.07 0.10 0.13
0.02 0.03 0.03 0.02 0.01 0.01 0.01 0.02 0.03 0.06 0.05 0.03 0.02 0.03 0.04 0.04 0.07 0.06 0.04 0.03 0.04 0.05 0.05 0.06 0.06 0.07 0.08 0.09 0.13 0.18 0.18 0.15 0.12 0.12 0.09 0.08 0.06 0.07 0.09 0.07 0.07 0.07 0.07 0.10
0.03 0.04 0.04 0.02 0.02 0.02 0.01 0.02 0.05 0.07 0.05 0.04 0.02 0.02 0.03 0.03 0.05 0.05 0.05 0.03 0.04 0.04 0.04 0.03 0.04 0.06 0.08 0.10 0.11 0.17 0.16 0.13 0.12 0.10 0.09 0.08 0.07 0.06 0.07 0.07 0.06 0.07 0.07 0.08
0.03 0.05 0.04 0.02 0.02 0.02 0.01 0.02 0.04 0.04 0.03 0.02 0.02 0.03 0.03 0.03 0.03 0.05 0.05 0.04 0.03 0.03 0.03 0.02 0.03 0.04 0.07 0.11 0.12 0.13 0.15 0.12 0.11 0.10 0.08 0.06 0.06 0.06 0.06 0.06 0.07 0.06 0.07 0.06
0.03 0.02 0.01 0.01 0.01 0.01 0.01 0.01 0.02 0.03 0.02 0.01 0.02 0.02 0.02 0.01 0.02 0.04 0.06 0.06 0.04 0.03 0.03 0.02 0.02 0.03 0.07 0.10 0.13 0.12 0.12 0.12 0.10 0.09 0.07 0.05 0.04 0.08 0.08 0.06 0.07 0.06 0.07 0.06
0.02 0.01 0.01 0.00 0.00 0.00 0.01 0.01 0.02 0.04 0.04 0.02 0.01 0.01 0.01 0.01 0.02 0.03 0.05 0.05 0.04 0.03 0.03 0.02 0.02 0.02 0.04 0.07 0.09 0.10 0.09 0.09 0.09 0.07 0.05 0.03 0.03 0.04 0.07 0.08 0.07 0.06 0.06 0.05
0.01 0.01 0.01 0.01 0.01 0.01 0.01 0.01 0.01 0.02 0.03 0.03 0.02 0.01 0.01 0.01 0.01 0.02 0.04 0.04 0.03 0.03 0.02 0.02 0.01 0.01 0.02 0.04 0.05 0.07 0.07 0.07 0.07 0.06 0.04 0.03 0.02 0.02 0.03 0.05 0.06 0.06 0.05 0.05
0.01 0.01 0.01 0.01 0.01 0.01 0.01 0.01 0.01 0.02 0.02 0.02 0.02 0.01 0.01 0.01 0.01 0.01 0.02 0.03 0.02 0.02 0.01 0.01 0.01 0.01 0.01 0.02 0.03 0.05 0.06 0.06 0.05 0.05 0.04 0.02 0.02 0.01 0.02 0.03 0.03 0.04 0.04 0.05
0.02 0.02 0.02 0.01 0.01 0.00 0.01 0.01 0.01 0.01 0.02 0.02 0.02 0.01 0.01 0.01 0.01 0.01 0.01 0.01 0.01 0.02 0.01 0.00 0.01 0.01 0.01 0.02 0.02 0.04 0.05 0.05 0.05 0.04 0.03 0.02 0.02 0.01 0.02 0.02 0.02 0.02 0.02 0.03
0.01 0.01 0.01 0.01 0.01 0.02 0.01 0.00 0.00 0.01 0.02 0.02 0.01 0.01 0.01 0.01 0.01 0.01 0.00 0.00 0.00 0.01 0.01 0.01 0.01 0.01 0.01 0.01 0.01 0.02 0.04 0.04 0.04 0.03 0.03 0.02 0.01 0.01 0.01 0.02 0.02 0.01 0.01 0.02
0.01 0.01 0.00 0.00 0.01 0.01 0.01 0.00 0.00 0.01 0.01 0.01 0.01 0.01 0.01 0.01 0.01 0.01 0.01 0.00 0.00 0.00 0.01 0.01 0.01 0.02 0.01 0.01 0.01 0.02 0.04 0.04 0.04 0.04 0.02 0.02 0.02 0.01 0.02 0.02 0.02 0.01 0.01 0.02
0.01 0.01 0.00 0.00 0.01 0.01 0.01 0.01 0.00 0.00 0.00 0.01 0.01 0.01 0.01 0.01 0.01 0.01 0.01 0.01 0.00 0.00 0.01 0.01 0.01 0.02 0.02 0.02 0.01 0.01 0.04 0.05 0.05 0.04 0.03 0.03 0.02 0.02 0.02 0.02 0.02 0.02 0.01 0.02
0.01 0.01 0.01 0.01 0.01 0.01 0.01 0.01 0.01 0.01 0.01 0.01 0.02 0.02 0.01 0.01 0.01 0.01 0.02 0.01 0.01 0.01 0.01 0.01 0.01 0.02 0.02 0.02 0.02 0.02 0.03 0.05 0.06 0.04 0.04 0.03 0.02 0.02 0.02 0.02 0.02 0.02 0.02 0.02
0.01 0.01 0.01 0.01 0.01 0.01 0.01 0.00 0.00 0.01 0.01 0.02 0.02 0.02 0.02 0.02 0.01 0.01 0.02 0.02 0.01 0.01 0.01 0.01 0.01 0.01 0.02 0.02 0.02 0.03 0.03 0.04 0.05 0.04 0.03 0.03 0.02 0.01 0.01 0.01 0.02 0.01 0.01 0.02
0.01 0.01 0.02 0.01 0.01 0.01 0.01 0.00 0.00 0.01 0.01 0.01 0.02 0.01 0.01 0.01 0.01 0.01 0.01 0.01 0.01 0.01 0.01 0.01 0.01 0.01 0.02 0.02 0.03 0.03 0.03 0.02 0.03 0.03 0.03 0.02 0.02 0.01 0.01 0.01 0.01 0.01 0.01 0.02
0.01 0.01 0.02 0.01 0.02 0.01 0.01 0.01 0.01 0.01 0.01 0.01 0.01 0.01 0.01 0.01 0.01 0.01 0.00 0.01 0.01 0.01 0.01 0.01 0.01 0.01 0.01 0.02 0.04 0.04 0.04 0.02 0.02 0.03 0.03 0.02 0.02 0.01 0.00 0.00 0.01 0.01 0.01 0.01
0.01 0.01 0.01 0.01 0.01 0.01 0.01 0.01 0.01 0.01 0.01 0.01 0.01 0.01 0.01 0.02 0.02 0.01 0.01 0.01 0.01 0.01 0.01 0.01 0.01 0.01 0.01 0.02 0.03 0.04 0.03 0.04 0.03 0.02 0.02 0.02 0.02 0.01 0.01 0.00 0.00 0.00 0.00 0.01
0.00 0.01 0.01 0.01 0.02 0.01 0.00 0.01 0.01 0.01 0.01 0.01 0.01 0.01 0.01 0.01 0.01 0.01 0.01 0.01 0.01 0.01 0.01 0.01 0.01 0.01 0.01 0.01 0.02 0.03 0.03 0.03 0.03 0.03 0.02 0.02 0.02 0.01 0.01 0.01 0.01 0.00 0.01 0.01
0.00 0.00 0.01 0.01 0.01 0.00 0.00 0.01 0.01 0.01 0.01 0.00 0.00 0.01 0.01 0.01 0.01 0.01 0.01 0.01 0.01 0.01 0.01 0.01 0.01 0.01 0.01 0.01 0.02 0.02 0.03 0.03 0.03 0.03 0.03 0.03 0.02 0.02 0.02 0.01 0.01 0.01 0.01 0.01
0.00 0.00 0.01 0.01 0.00 0.00 0.00 0.00 0.00 0.00 0.00 0.00 0.00 0.00 0.01 0.00 0.00 0.01 0.01 0.01 0.01 0.01 0.01 0.01 0.01 0.01 0.01 0.01 0.01 0.02 0.03 0.03 0.03 0.03 0.03 0.03 0.02 0.02 0.02 0.02 0.02 0.01 0.01 0.01
0.00 0.00 0.00 0.00 0.00 0.00 0.00 0.00 0.00 0.00 0.00 0.00 0.00 0.00 0.00 0.00 0.00 0.00 0.01 0.01 0.01 0.01 0.01 0.01 0.01 0.01 0.01 0.01 0.02 0.02 0.02 0.02 0.02 0.02 0.03 0.03 0.02 0.02 0.03 0.02 0.02 0.01 0.01 0.01
0.01 0.01 0.01 0.01 0.00 0.01 0.00 0.00 0.00 0.00 0.00 0.00 0.00 0.01 0.01 0.00 0.00 0.00 0.01 0.01 0.01 0.01 0.01 0.01 0.01 0.01 0.01 0.01 0.01 0.02 0.02 0.02 0.02 0.02 0.03 0.02 0.02 0.02 0.02 0.02 0.01 0.01 0.01 0.01
MSLP
1016.55 1016.35 1016.09 1015.75 1015.31 1014.77 1014.12 1013.40 1012.67 1012.00 1011.46 1011.08 1010.90 1010.89 1011.01 1011.15 1011.24 1011.19 1010.95 1010.53 1009.94 1009.26 1008.56 1007.92 1007.37 1006.93 1006.56 1006.20 1005.79 1005.26 1004.59 1003.82 1003.00 1002.25 1001.68 1001.40 1001.48 1001.96 1002.82 1003.98 1005.34 1006.80 1008.26 1009.66
1017.63 1017.28 1016.83 1016.28 1015.61 1014.87 1014.06 1013.26 1012.53 1011.93 1011.52 1011.34 1011.38 1011.60 1011.93 1012.29 1012.55 1012.63 1012.49 1012.10 1011.50 1010.74 1009.92 1009.10 1008.35 1007.70 1007.13 1006.60 1006.07 1005.48 1004.81 1004.08 1003.33 1002.65 1002.12 1001.85 1001.91 1002.31 1003.06 1004.09 1005.32 1006.67 1008.05 1009.40
1018.74 1018.24 1017.59 1016.82 1015.94 1015.01 1014.08 1013.22 1012.49 1011.97 1011.69 1011.67 1011.90 1012.31 1012.84 1013.36 1013.76 1013.97 1013.90 1013.55 1012.95 1012.13 1011.19 1010.22 1009.28 1008.41 1007.63 1006.92 1006.25 1005.58 1004.89 1004.18 1003.51 1002.91 1002.48 1002.26 1002.33 1002.71 1003.40 1004.33 1005.46 1006.70 1007.99 1009.27
1019.85 1019.20 1018.39 1017.44 1016.40 1015.35 1014.34 1013.45 1012.76 1012.31 1012.13 1012.23 1012.58 1013.11 1013.73 1014.34 1014.82 1015.08 1015.06 1014.74 1014.12 1013.27 1012.25 1011.14 1010.04 1008.98 1008.00 1007.11 1006.28 1005.51 1004.79 1004.11 1003.50 1003.00 1002.68 1002.56 1002.70 1003.11 1003.77 1004.65 1005.70 1006.85 1008.05 1009.24
1020.96 1020.20 1019.27 1018.22 1017.11 1016.01 1014.99 1014.13 1013.49 1013.10 1012.99 1013.14 1013.52 1014.06 1014.68 1015.27 1015.73 1015.97 1015.94 1015.61 1014.98 1014.09 1013.02 1011.82 1010.59 1009.38 1008.23 1007.16 1006.19 1005.31 1004.54 1003.86 1003.32 1002.92 1002.72 1002.72 1002.96 1003.44 1004.13 1005.01 1006.01 1007.10 1008.21 1009.31
1022.06 1021.25 1020.28 1019.22 1018.13 1017.07 1016.13 1015.35 1014.78 1014.44 1014.35 1014.48 1014.80 1015.24 1015.73 1016.18 1016.52 1016.66 1016.55 1016.18 1015.53 1014.63 1013.53 1012.28 1010.97 1009.64 1008.35 1007.14 1006.03 1005.05 1004.21 1003.53 1003.02 1002.72 1002.62 1002.76 1003.12 1003.70 1004.46 1005.36 1006.36 1007.40 1008.44 1009.47
1023.14 1022.33 1021.42 1020.44 1019.46 1018.54 1017.74 1017.09 1016.61 1016.33 1016.22 1016.26 1016.42 1016.66 1016.91 1017.13 1017.25 1017.22 1016.99 1016.54 1015.86 1014.95 1013.85 1012.60 1011.25 1009.85 1008.46 1007.13 1005.90 1004.81 1003.89 1003.18 1002.70 1002.45 1002.46 1002.72 1003.20 1003.89 1004.73 1005.69 1006.70 1007.73 1008.74 1009.71
1024.15 1023.42 1022.62 1021.80 1021.02 1020.31 1019.70 1019.22 1018.86 1018.61 1018.45 1018.35 1018.30 1018.27 1018.22 1018.14 1017.98 1017.73 1017.34 1016.79 1016.08 1015.18 1014.11 1012.88 1011.53 1010.10 1008.65 1007.22 1005.88 1004.68 1003.68 1002.92 1002.43 1002.22 1002.30 1002.65 1003.24 1004.02 1004.96 1005.98 1007.03 1008.08 1009.08 1010.01
1025.06 1024.44 1023.81 1023.21 1022.66 1022.20 1021.83 1021.54 1021.29 1021.06 1020.83 1020.58 1020.28 1019.95 1019.58 1019.17 1018.72 1018.23 1017.68 1017.04 1016.30 1015.42 1014.39 1013.21 1011.89 1010.45 1008.96 1007.46 1006.03 1004.73 1003.65 1002.82 1002.29 1002.08 1002.20 1002.60 1003.27 1004.14 1005.15 1006.23 1007.34 1008.41 1009.42 1010.36
1025.81 1025.34 1024.89 1024.52 1024.23 1024.03 1023.89 1023.77 1023.63 1023.42 1023.12 1022.70 1022.17 1021.56 1020.88 1020.17 1019.46 1018.76 1018.06 1017.35 1016.59 1015.74 1014.77 1013.64 1012.36 1010.94 1009.43 1007.88 1006.36 1004.97 1003.80 1002.89 1002.31 1002.08 1002.19 1002.62 1003.33 1004.25 1005.32 1006.45 1007.60 1008.71 1009.75 1010.71
1026.39 1026.05 1025.80 1025.64 1025.58 1025.60 1025.65 1025.68 1025.62 1025.42 1025.05 1024.50 1023.78 1022.93 1022.01 1021.07 1020.15 1019.30 1018.50 1017.74 1016.99 1016.18 1015.26 1014.19 1012.95 1011.55 1010.02 1008.42 1006.84 1005.37 1004.11 1003.13 1002.49 1002.21 1002.29 1002.72 1003.43 1004.37 1005.46 1006.63 1007.81 1008.95 1010.03 1011.02
1026.81 1026.60 1026.50 1026.52 1026.63 1026.82 1027.01 1027.14 1027.13 1026.93 1026.50 1025.84 1024.98 1023.98 1022.89 1021.80 1020.76 1019.82 1018.97 1018.20 1017.47 1016.70 1015.82 1014.80 1013.59 1012.19 1010.65 1009.02 1007.38 1005.85 1004.52 1003.47 1002.77 1002.44 1002.48 1002.88 1003.58 1004.51 1005.59 1006.77 1007.96 1009.12 1010.23 1011.26
1027.14 1027.04 1027.05 1027.18 1027.41 1027.69 1027.95 1028.12 1028.12 1027.90 1027.42 1026.69 1025.75 1024.66 1023.50 1022.35 1021.27 1020.30 1019.45 1018.70 1017.99 1017.25 1016.40 1015.40 1014.19 1012.79 1011.23 1009.56 1007.89 1006.31 1004.93 1003.83 1003.09 1002.72 1002.73 1003.09 1003.75 1004.65 1005.72 1006.87 1008.06 1009.23 1010.35 1011.41
1027.49 1027.46 1027.54 1027.73 1028.00 1028.29 1028.55 1028.70 1028.67 1028.40 1027.88 1027.12 1026.15 1025.04 1023.88 1022.73 1021.67 1020.74 1019.92 1019.19 1018.50 1017.77 1016.92 1015.90 1014.68 1013.26 1011.66 1009.97 1008.27 1006.66 1005.27 1004.15 1003.39 1003.00 1002.99 1003.32 1003.95 1004.81 1005.83 1006.95 1008.12 1009.28 1010.40 1011.48
1027.97 1027.99 1028.09 1028.28 1028.52 1028.77 1028.96 1029.04 1028.93 1028.61 1028.05 1027.26 1026.30 1025.22 1024.11 1023.02 1022.02 1021.13 1020.35 1019.65 1018.95 1018.20 1017.33 1016.26 1014.99 1013.52 1011.89 1010.17 1008.46 1006.86 1005.47 1004.38 1003.63 1003.24 1003.23 1003.55 1004.15 1004.98 1005.96 1007.04 1008.17 1009.31 1010.42 1011.50
1028.65 1028.70 1028.79 1028.93 1029.10 1029.25 1029.33 1029.30 1029.09 1028.69 1028.09 1027.30 1026.36 1025.34 1024.29 1023.28 1022.35 1021.52 1020.77 1020.06 1019.33 1018.53 1017.58 1016.45 1015.10 1013.57 1011.90 1010.17 1008.46 1006.89 1005.54 1004.49 1003.79 1003.44 1003.45 1003.78 1004.37 1005.18 1006.13 1007.17 1008.26 1009.36 1010.46 1011.54
1029.56 1029.61 1029.67 1029.74 1029.80 1029.83 1029.78 1029.62 1029.30 1028.82 1028.18 1027.38 1026.48 1025.52 1024.54 1023.60 1022.73 1021.93 1021.17 1020.43 1019.64 1018.75 1017.70 1016.46 1015.03 1013.43 1011.72 1009.98 1008.30 1006.78 1005.50 1004.52 1003.89 1003.61 1003.67 1004.03 1004.64 1005.43 1006.37 1007.38 1008.44 1009.51 1010.59 1011.65
1030.65 1030.69 1030.70 1030.68 1030.63 1030.53 1030.34 1030.06 1029.64 1029.09 1028.41 1027.62 1026.75 1025.83 1024.92 1024.03 1023.19 1022.38 1021.59 1020.77 1019.88 1018.87 1017.70 1016.34 1014.82 1013.16 1011.42 1009.69 1008.06 1006.60 1005.41 1004.54 1004.00 1003.81 1003.94 1004.35 1004.98 1005.79 1006.72 1007.73 1008.76 1009.82 1010.87 1011.91
1031.78 1031.79 1031.75 1031.65 1031.50 1031.28 1030.99 1030.60 1030.11 1029.51 1028.81 1028.03 1027.19 1026.32 1025.44 1024.58 1023.73 1022.88 1022.02 1021.10 1020.09 1018.94 1017.64 1016.17 1014.56 1012.85 1011.10 1009.40 1007.83 1006.47 1005.38 1004.62 1004.19 1004.10 1004.31 1004.78 1005.47 1006.30 1007.25 1008.25 1009.28 1010.32 1011.36 1012.38
1032.78 1032.76 1032.67 1032.50 1032.27 1031.97 1031.60 1031.15 1030.62 1030.01 1029.33 1028.57 1027.77 1026.93 1026.08 1025.21 1024.33 1023.42 1022.47 1021.43 1020.28 1019.00 1017.57 1016.00 1014.33 1012.60 1010.87 1009.23 1007.74 1006.48 1005.52 1004.88 1004.56 1004.57 1004.86 1005.40 1006.14 1007.01 1007.98 1008.99 1010.03 1011.06 1012.09 1013.10
1033.50 1033.44 1033.30 1033.08 1032.80 1032.47 1032.07 1031.61 1031.10 1030.51 1029.87 1029.17 1028.41 1027.61 1026.77 1025.89 1024.96 1023.97 1022.91 1021.75 1020.47 1019.07 1017.55 1015.92 1014.21 1012.50 1010.82 1009.26 1007.88 1006.75 1005.91 1005.39 1005.19 1005.29 1005.66 1006.26 1007.04 1007.95 1008.94 1009.97 1011.01 1012.05 1013.06 1014.06
1033.83 1033.73 1033.55 1033.31 1033.02 1032.68 1032.31 1031.90 1031.44 1030.93 1030.36 1029.73 1029.03 1028.27 1027.44 1026.54 1025.56 1024.49 1023.33 1022.06 1020.68 1019.20 1017.61 1015.96 1014.27 1012.60 1011.02 1009.57 1008.32 1007.33 1006.62 1006.22 1006.12 1006.31 1006.75 1007.40 1008.21 1009.14 1010.14 1011.18 1012.22 1013.25 1014.26 1015.23
1033.75 1033.61 1033.41 1033.17 1032.90 1032.61 1032.30 1031.97 1031.61 1031.20 1030.74 1030.20 1029.58 1028.87 1028.05 1027.14 1026.11 1024.97 1023.73 1022.38 1020.93 1019.39 1017.79 1016.15 1014.53 1012.96 1011.49 1010.19 1009.09 1008.24 1007.67 1007.39 1007.38 1007.64 1008.13 1008.81 1009.64 1010.57 1011.57 1012.60 1013.63 1014.64 1015.62 1016.56
1033.34 1033.16 1032.95 1032.73 1032.51 1032.29 1032.08 1031.86 1031.63 1031.35 1031.01 1030.57 1030.03 1029.37 1028.58 1027.65 1026.59 1025.41 1024.10 1022.70 1021.22 1019.68 1018.10 1016.53 1015.00 1013.56 1012.25 1011.10 1010.17 1009.47 1009.03 1008.86 1008.94 1009.25 1009.77 1010.46 1011.29 1012.20 1013.18 1014.17 1015.17 1016.14 1017.07 1017.96
1032.74 1032.54 1032.33 1032.15 1031.99 1031.87 1031.77 1031.68 1031.58 1031.43 1031.21 1030.88 1030.41 1029.80 1029.03 1028.10 1027.02 1025.81 1024.48 1023.06 1021.58 1020.06 1018.55 1017.08 1015.68 1014.39 1013.24 1012.27 1011.50 1010.96 1010.65 1010.57 1010.72 1011.07 1011.60 1012.29 1013.08 1013.96 1014.89 1015.83 1016.77 1017.68 1018.56 1019.38
1032.13 1031.92 1031.74 1031.60 1031.52 1031.49 1031.51 1031.55 1031.57 1031.54 1031.42 1031.18 1030.77 1030.20 1029.45 1028.52 1027.43 1026.21 1024.87 1023.46 1022.01 1020.56 1019.14 1017.79 1016.53 1015.40 1014.42 1013.62 1013.01 1012.60 1012.41 1012.41 1012.62 1012.99 1013.52 1014.18 1014.93 1015.76 1016.62 1017.50 1018.36 1019.20 1020.00 1020.74
Thickness
5554 5543 5535 5537 5538 5538 5534 5528 5527 5532 5538 5536 5533 5535 5539 5543 5544 5545 5548 5551 5554 5559 5562 5564 5568 5571 5572 5573 5573 5574 5575 5576 5577 5578 5580 5582 5584 5587 5590 5592 5596 5599 5602 5606
5542 5537 5541 5541 5539 5536 5530 5525 5523 5528 5534 5533 5530 5529 5533 5536 5539 5542 5543 5545 5547 5550 5553 5556 5559 5561 5563 5564 5564 5565 5567 5568 5569 5571 5572 5574 5576 5578 5581 5583 5586 5589 5593 5597
5539 5539 5542 5538 5533 5530 5527 5522 5521 5523 5526 5528 5526 5523 5527 5531 5534 5536 5537 5538 5541 5544 5544 5548 5551 5552 5553 5555 5556 5559 5559 5560 5561 5562 5564 5566 5567 5569 5572 5575 5578 5580 5584 5587
5534 5537 5536 5532 5528 5525 5521 5525 5524 5522 5515 5511 5517 5511 5519 5523 5526 5529 5529 5529 5532 5535 5537 5539 5542 5544 5545 5547 5549 5551 5552 5553 5553 5555 5556 5558 5559 5561 5563 5566 5569 5571 5573 5577
5527 5529 5527 5525 5524 5522 5518 5522 5520 5518 5510 5505 5507 5501 5509 5516 5519 5522 5524 5525 5526 5528 5530 5532 5533 5536 5538 5539 5540 5543 5544 5545 5546 5548 5549 5550 5552 5553 5554 5557 5561 5562 5564 5567
5523 5525 5523 5521 5521 5520 5517 5515 5514 5504 5498 5497 5502 5496 5501 5506 5514 5517 5519 5520 5520 5522 5524 5525 5527 5529 5530 5530 5532 5534 5536 5538 5539 5540 5541 5543 5544 5545 5546 5549 5551 5552 5555 5557
5513 5517 5517 5517 5513 5512 5508 5499 5491 5488 5483 5491 5499 5497 5499 5509 5513 5513 5514 5514 5514 5515 5516 5518 5520 5521 5522 5523 5524 5527 5529 5530 5531 5532 5533 5535 5536 5537 5539 5540 5541 5542 5544 5547
5501 5504 5508 5508 5507 5501 5499 5496 5486 5481 5479 5485 5491 5489 5499 5507 5509 5507 5507 5507 5508 5509 5509 5510 5511 5512 5513 5516 5517 5519 5521 5523 5524 5525 5526 5527 5528 5529 5531 5532 5533 5534 5536 5537
5493 5497 5503 5504 5505 5502 5494 5486 5487 5477 5471 5468 5477 5481 5495 5503 5502 5500 5499 5499 5501 5502 5502 5503 5504 5505 5506 5508 5510 5511 5514 5517 5517 5518 5518 5519 5520 5521 5523 5523 5525 5525 5526 5527
5494 5489 5495 5497 5500 5496 5492 5485 5474 5471 5470 5468 5473 5476 5483 5490 5492 5492 5490 5489 5491 5492 5493 5495 5496 5498 5500 5501 5503 5504 5507 5509 5510 5511 5511 5511 5512 5514 5515 5515 5516 5517 5517 5517
5491 5482 5484 5485 5485 5484 5482 5479 5473 5463 5461 5461 5461 5476 5489 5484 5483 5483 5481 5482 5482 5483 5484 5486 5488 5490 5492 5494 5496 5498 5499 5501 5502 5503 5504 5504 5505 5506 5507 5506 5507 5507 5507 5507
5482 5471 5468 5476 5481 5480 5477 5474 5467 5461 5456 5451 5451 5468 5484 5479 5476 5475 5473 5474 5475 5476 5477 5478 5480 5482 5484 5486 5489 5491 5492 5494 5495 5496 5496 5496 5497 5497 5498 5498 5498 5497 5497 5498
5476 5465 5462 5472 5473 5471 5469 5468 5462 5455 5449 5444 5445 5464 5477 5471 5470 5468 5466 5467 5468 5469 5470 5471 5473 5474 5477 5479 5482 5484 5486 5487 5488 5489 5489 5489 5489 5490 5490 5490 5490 5489 5489 5489
5474 5456 5458 5466 5468 5462 5461 5463 5459 5453 5446 5445 5453 5462 5468 5465 5463 5462 5460 5460 5459 5460 5461 5463 5464 5467 5469 5472 5474 5477 5479 5481 5482 5482 5482 5482 5483 5482 5482 5482 5482 5481 5481 5481
5465 5451 5448 5453 5460 5458 5459 5461 5458 5454 5453 5451 5457 5458 5466 5462 5458 5455 5454 5455 5455 5455 5455 5457 5458 5459 5461 5464 5467 5470 5472 5473 5474 5475 5475 5475 5475 5475 5475 5474 5473 5473 5473 5474
5452 5446 5447 5451 5456 5453 5455 5458 5457 5457 5456 5454 5454 5456 5462 5456 5452 5449 5449 5449 5450 5450 5450 5450 5451 5452 5454 5457 5460 5462 5464 5465 5466 5467 5467 5467 5467 5467 5467 5466 5466 5465 5465 5465
5441 5439 5440 5444 5445 5450 5450 5456 5453 5452 5453 5453 5454 5458 5453 5449 5449 5446 5444 5443 5443 5443 5444 5444 5444 5446 5447 5450 5453 5454 5457 5458 5459 5459 5460 5460 5460 5459 5459 5459 5458 5457 5457 5456
5437 5430 5423 5428 5434 5437 5461 5455 5453 5451 5452 5450 5452 5450 5447 5447 5444 5441 5439 5437 5436 5437 5438 5438 5438 5439 5441 5443 5446 5448 5449 5451 5451 5451 5452 5452 5452 5452 5451 5451 5450 5449 5448 5448
5435 5428 5417 5416 5421 5435 5450 5451 5445 5442 5446 5447 5445 5444 5440 5436 5435 5435 5435 5432 5431 5431 5431 5431 5431 5433 5435 5437 5439 5440 5441 5442 5443 5443 5444 5444 5444 5444 5443 5443 5442 5441 5440 5440
5424 5419 5412 5408 5419 5431 5451 5448 5443 5440 5438 5444 5440 5437 5432 5429 5430 5434 5431 5427 5425 5425 5424 5424 5425 5426 5428 5429 5431 5432 5433 5433 5434 5435 5435 5436 5436 5435 5435 5435 5434 5433 5433 5433
5414 5406 5403 5404 5408 5427 5439 5438 5436 5431 5439 5440 5435 5431 5426 5425 5427 5426 5423 5421 5420 5419 5418 5418 5418 5419 5420 5422 5423 5424 5424 5425 5426 5426 5427 5427 5427 5427 5427 5426 5425 5424 5424 5424
5415 5407 5400 5397 5401 5426 5436 5429 5427 5431 5433 5431 5428 5425 5421 5418 5417 5417 5416 5414 5413 5412 5412 5411 5411 5412 5413 5414 5415 5416 5416 5417 5418 5418 5418 5418 5417 5417 5418 5417 5416 5415 5415 5414
5411 5416 5412 5414 5427 5432 5428 5428 5427 5424 5423 5423 5420 5418 5415 5411 5410 5410 5409 5408 5406 5405 5404 5404 5403 5404 5405 5405 5407 5407 5408 5409 5409 5408 5408 5408 5408 5408 5408 5407 5406 5406 5405 5404
5411 5411 5408 5408 5420 5422 5421 5420 5420 5418 5417 5417 5415 5412 5409 5406 5404 5403 5403 5401 5400 5399 5398 5397 5397 5396 5397 5397 5398 5399 5400 5400 5400 5399 5399 5399 5398 5398 5398 5397 5397 5396 5395 5394
5417 5407 5405 5407 5414 5415 5419 5416 5414 5412 5411 5409 5407 5405 5403 5400 5398 5397 5396 5395 5394 5393 5392 5391 5389 5389 5389 5389 5389 5390 5390 5391 5390 5390 5390 5390 5389 5389 5388 5387 5386 5386 5386 5385
5413 5409 5408 5416 5418 5413 5415 5414 5410 5407 5405 5403 5400 5398 5396 5394 5392 5391 5389 5388 5386 5386 5384 5382 5381 5381 5380 5380 5380 5381 5381 5382 5381 5381 5380 5380 5380 5379 5378 5377 5377 5377 5377 5377